"Time","Value","Approval","myLocation"
"2023-05-07 00:00",1.301,"Working","OW290"
"2023-05-07 01:00",1.303,"Working","OW290"
"2023-05-07 02:00",1.303,"Working","OW290"
"2023-05-07 03:00",1.303,"Working","OW290"
"2023-05-07 04:00",1.302,"Working","OW290"
"2023-05-07 05:00",1.302,"Working","OW290"
"2023-05-07 06:00",1.302,"Working","OW290"
"2023-05-07 07:00",1.302,"Working","OW290"
"2023-05-07 08:00",1.303,"Working","OW290"
"2023-05-07 09:00",1.304,"Working","OW290"
"2023-05-07 10:00",1.305,"Working","OW290"
"2023-05-07 11:00",1.306,"Working","OW290"
"2023-05-07 12:00",1.306,"Working","OW290"
"2023-05-07 13:00",1.305,"Working","OW290"
"2023-05-07 14:00",1.304,"Working","OW290"
"2023-05-07 15:00",1.302,"Working","OW290"
"2023-05-07 16:00",1.3,"Working","OW290"
"2023-05-07 17:00",1.299,"Working","OW290"
"2023-05-07 18:00",1.299,"Working","OW290"
"2023-05-07 19:00",1.3,"Working","OW290"
"2023-05-07 20:00",1.301,"Working","OW290"
"2023-05-07 21:00",1.304,"Working","OW290"
"2023-05-07 22:00",1.307,"Working","OW290"
"2023-05-07 23:00",1.31,"Working","OW290"
"2023-05-08 00:00",1.312,"Working","OW290"
"2023-05-08 01:00",1.314,"Working","OW290"
"2023-05-08 02:00",1.315,"Working","OW290"
"2023-05-08 03:00",1.315,"Working","OW290"
"2023-05-08 04:00",1.315,"Working","OW290"
"2023-05-08 05:00",1.314,"Working","OW290"
"2023-05-08 06:00",1.313,"Working","OW290"
"2023-05-08 07:00",1.313,"Working","OW290"
"2023-05-08 08:00",1.313,"Working","OW290"
"2023-05-08 09:00",1.314,"Working","OW290"
"2023-05-08 10:00",1.314,"Working","OW290"
"2023-05-08 11:00",1.315,"Working","OW290"
"2023-05-08 12:00",1.315,"Working","OW290"
"2023-05-08 13:00",1.315,"Working","OW290"
"2023-05-08 14:00",1.314,"Working","OW290"
"2023-05-08 15:00",1.312,"Working","OW290"
"2023-05-08 16:00",1.31,"Working","OW290"
"2023-05-08 17:00",1.308,"Working","OW290"
"2023-05-08 18:00",1.307,"Working","OW290"
"2023-05-08 19:00",1.306,"Working","OW290"
"2023-05-08 20:00",1.307,"Working","OW290"
"2023-05-08 21:00",1.309,"Working","OW290"
"2023-05-08 22:00",1.312,"Working","OW290"
"2023-05-08 23:00",1.315,"Working","OW290"
"2023-05-09 00:00",1.318,"Working","OW290"
"2023-05-09 01:00",1.321,"Working","OW290"
"2023-05-09 02:00",1.323,"Working","OW290"
"2023-05-09 03:00",1.325,"Working","OW290"
"2023-05-09 04:00",1.325,"Working","OW290"
"2023-05-09 05:00",1.325,"Working","OW290"
"2023-05-09 06:00",1.325,"Working","OW290"
"2023-05-09 07:00",1.324,"Working","OW290"
"2023-05-09 08:00",1.324,"Working","OW290"
"2023-05-09 09:00",1.325,"Working","OW290"
"2023-05-09 10:00",1.325,"Working","OW290"
"2023-05-09 11:00",1.326,"Working","OW290"
"2023-05-09 12:00",1.327,"Working","OW290"
"2023-05-09 13:00",1.327,"Working","OW290"
"2023-05-09 14:00",1.327,"Working","OW290"
"2023-05-09 15:00",1.326,"Working","OW290"
"2023-05-09 16:00",1.325,"Working","OW290"
"2023-05-09 17:00",1.324,"Working","OW290"
"2023-05-09 18:00",1.322,"Working","OW290"
"2023-05-09 19:00",1.321,"Working","OW290"
"2023-05-09 20:00",1.321,"Working","OW290"
"2023-05-09 21:00",1.322,"Working","OW290"
"2023-05-09 22:00",1.324,"Working","OW290"
"2023-05-09 23:00",1.327,"Working","OW290"
"2023-05-10 00:00",1.329,"Working","OW290"
"2023-05-10 01:00",1.333,"Working","OW290"
"2023-05-10 02:00",1.335,"Working","OW290"
"2023-05-10 03:00",1.337,"Working","OW290"
"2023-05-10 04:00",1.339,"Working","OW290"
"2023-05-10 05:00",1.339,"Working","OW290"
"2023-05-10 06:00",1.339,"Working","OW290"
"2023-05-10 07:00",1.338,"Working","OW290"
"2023-05-10 08:00",1.337,"Working","OW290"
"2023-05-10 09:00",1.336,"Working","OW290"
"2023-05-10 10:00",1.335,"Working","OW290"
"2023-05-10 11:00",1.335,"Working","OW290"
"2023-05-10 12:00",1.336,"Working","OW290"
"2023-05-10 13:00",1.335,"Working","OW290"
"2023-05-10 14:00",1.335,"Working","OW290"
"2023-05-10 15:00",1.335,"Working","OW290"
"2023-05-10 16:00",1.334,"Working","OW290"
"2023-05-10 17:00",1.332,"Working","OW290"
"2023-05-10 18:00",1.33,"Working","OW290"
"2023-05-10 19:00",1.328,"Working","OW290"
"2023-05-10 20:00",1.327,"Working","OW290"
"2023-05-10 21:00",1.326,"Working","OW290"
"2023-05-10 22:00",1.327,"Working","OW290"
"2023-05-10 23:00",1.329,"Working","OW290"
"2023-05-11 00:00",1.332,"Working","OW290"
"2023-05-11 01:00",1.335,"Working","OW290"
"2023-05-11 02:00",1.338,"Working","OW290"
"2023-05-11 03:00",1.341,"Working","OW290"
"2023-05-11 04:00",1.344,"Working","OW290"
"2023-05-11 05:00",1.346,"Working","OW290"
"2023-05-11 06:00",1.347,"Working","OW290"
"2023-05-11 07:00",1.347,"Working","OW290"
"2023-05-11 08:00",1.346,"Working","OW290"
"2023-05-11 09:00",1.345,"Working","OW290"
"2023-05-11 10:00",1.344,"Working","OW290"
"2023-05-11 11:00",1.345,"Working","OW290"
"2023-05-11 12:00",1.345,"Working","OW290"
"2023-05-11 13:00",1.345,"Working","OW290"
"2023-05-11 14:00",1.346,"Working","OW290"
"2023-05-11 15:00",1.346,"Working","OW290"
"2023-05-11 16:00",1.346,"Working","OW290"
"2023-05-11 17:00",1.346,"Working","OW290"
"2023-05-11 18:00",1.344,"Working","OW290"
"2023-05-11 19:00",1.343,"Working","OW290"
"2023-05-11 20:00",1.342,"Working","OW290"
"2023-05-11 21:00",1.34,"Working","OW290"
"2023-05-11 22:00",1.34,"Working","OW290"
"2023-05-11 23:00",1.341,"Working","OW290"
"2023-05-12 00:00",1.342,"Working","OW290"
"2023-05-12 01:00",1.345,"Working","OW290"
"2023-05-12 02:00",1.348,"Working","OW290"
"2023-05-12 03:00",1.351,"Working","OW290"
"2023-05-12 04:00",1.354,"Working","OW290"
"2023-05-12 05:00",1.357,"Working","OW290"
"2023-05-12 06:00",1.359,"Working","OW290"
"2023-05-12 07:00",1.36,"Working","OW290"
"2023-05-12 08:00",1.36,"Working","OW290"
"2023-05-12 09:00",1.358,"Working","OW290"
"2023-05-12 10:00",1.357,"Working","OW290"
"2023-05-12 11:00",1.357,"Working","OW290"
"2023-05-12 12:00",1.356,"Working","OW290"
"2023-05-12 13:00",1.356,"Working","OW290"
"2023-05-12 14:00",1.356,"Working","OW290"
"2023-05-12 15:00",1.357,"Working","OW290"
"2023-05-12 16:00",1.358,"Working","OW290"
"2023-05-12 17:00",1.359,"Working","OW290"
"2023-05-12 18:00",1.358,"Working","OW290"
"2023-05-12 19:00",1.357,"Working","OW290"
"2023-05-12 20:00",1.355,"Working","OW290"
"2023-05-12 21:00",1.354,"Working","OW290"
"2023-05-12 22:00",1.352,"Working","OW290"
"2023-05-12 23:00",1.352,"Working","OW290"
"2023-05-13 00:00",1.352,"Working","OW290"
"2023-05-13 01:00",1.354,"Working","OW290"
"2023-05-13 02:00",1.356,"Working","OW290"
"2023-05-13 03:00",1.359,"Working","OW290"
"2023-05-13 04:00",1.363,"Working","OW290"
"2023-05-13 05:00",1.366,"Working","OW290"
"2023-05-13 06:00",1.369,"Working","OW290"
"2023-05-13 07:00",1.37,"Working","OW290"
"2023-05-13 08:00",1.37,"Working","OW290"
"2023-05-13 09:00",1.37,"Working","OW290"
"2023-05-13 10:00",1.368,"Working","OW290"
"2023-05-13 11:00",1.367,"Working","OW290"
"2023-05-13 12:00",1.366,"Working","OW290"
"2023-05-13 13:00",1.366,"Working","OW290"
"2023-05-13 14:00",1.366,"Working","OW290"
"2023-05-13 15:00",1.367,"Working","OW290"
"2023-05-13 16:00",1.368,"Working","OW290"
"2023-05-13 17:00",1.369,"Working","OW290"
"2023-05-13 18:00",1.369,"Working","OW290"
"2023-05-13 19:00",1.368,"Working","OW290"
"2023-05-13 20:00",1.366,"Working","OW290"
"2023-05-13 21:00",1.364,"Working","OW290"
"2023-05-13 22:00",1.362,"Working","OW290"
"2023-05-13 23:00",1.36,"Working","OW290"
"2023-05-14 00:00",1.359,"Working","OW290"
"2023-05-14 01:00",1.359,"Working","OW290"
"2023-05-14 02:00",1.36,"Working","OW290"
"2023-05-14 03:00",1.361,"Working","OW290"
"2023-05-14 04:00",1.365,"Working","OW290"
"2023-05-14 05:00",1.368,"Working","OW290"
"2023-05-14 06:00",1.371,"Working","OW290"
"2023-05-14 07:00",1.373,"Working","OW290"
"2023-05-14 08:00",1.374,"Working","OW290"
"2023-05-14 09:00",1.374,"Working","OW290"
"2023-05-14 10:00",1.372,"Working","OW290"
"2023-05-14 11:00",1.371,"Working","OW290"
"2023-05-14 12:00",1.369,"Working","OW290"
"2023-05-14 13:00",1.368,"Working","OW290"
"2023-05-14 14:00",1.368,"Working","OW290"
"2023-05-14 15:00",1.368,"Working","OW290"
"2023-05-14 16:00",1.369,"Working","OW290"
"2023-05-14 17:00",1.369,"Working","OW290"
"2023-05-14 18:00",1.37,"Working","OW290"
"2023-05-14 19:00",1.37,"Working","OW290"
"2023-05-14 20:00",1.369,"Working","OW290"
"2023-05-14 21:00",1.368,"Working","OW290"
"2023-05-14 22:00",1.366,"Working","OW290"
"2023-05-14 23:00",1.364,"Working","OW290"
"2023-05-15 00:00",1.363,"Working","OW290"
"2023-05-15 01:00",1.362,"Working","OW290"
"2023-05-15 02:00",1.363,"Working","OW290"
"2023-05-15 03:00",1.364,"Working","OW290"
"2023-05-15 04:00",1.368,"Working","OW290"
"2023-05-15 05:00",1.371,"Working","OW290"
"2023-05-15 06:00",1.375,"Working","OW290"
"2023-05-15 07:00",1.377,"Working","OW290"
"2023-05-15 08:00",1.379,"Working","OW290"
"2023-05-15 09:00",1.379,"Working","OW290"
"2023-05-15 10:00",1.378,"Working","OW290"
"2023-05-15 11:00",1.377,"Working","OW290"
"2023-05-15 12:00",1.375,"Working","OW290"
"2023-05-15 13:00",1.374,"Working","OW290"
"2023-05-15 14:00",1.373,"Working","OW290"
"2023-05-15 15:00",1.374,"Working","OW290"
"2023-05-15 16:00",1.375,"Working","OW290"
"2023-05-15 17:00",1.376,"Working","OW290"
"2023-05-15 18:00",1.378,"Working","OW290"
"2023-05-15 19:00",1.38,"Working","OW290"
"2023-05-15 20:00",1.381,"Working","OW290"
"2023-05-15 21:00",1.381,"Working","OW290"
"2023-05-15 22:00",1.38,"Working","OW290"
"2023-05-15 23:00",1.379,"Working","OW290"
"2023-05-16 00:00",1.377,"Working","OW290"
"2023-05-16 01:00",1.376,"Working","OW290"
"2023-05-16 02:00",1.376,"Working","OW290"
"2023-05-16 03:00",1.377,"Working","OW290"
"2023-05-16 04:00",1.379,"Working","OW290"
"2023-05-16 05:00",1.383,"Working","OW290"
"2023-05-16 06:00",1.386,"Working","OW290"
"2023-05-16 07:00",1.39,"Working","OW290"
"2023-05-16 08:00",1.392,"Working","OW290"
"2023-05-16 09:00",1.393,"Working","OW290"
"2023-05-16 10:00",1.393,"Working","OW290"
"2023-05-16 11:00",1.394,"Working","OW290"
"2023-05-16 12:00",1.393,"Working","OW290"
"2023-05-16 13:00",1.391,"Working","OW290"
"2023-05-16 14:00",1.39,"Working","OW290"
"2023-05-16 15:00",1.39,"Working","OW290"
"2023-05-16 16:00",1.391,"Working","OW290"
"2023-05-16 17:00",1.392,"Working","OW290"
"2023-05-16 18:00",1.395,"Working","OW290"
"2023-05-16 19:00",1.397,"Working","OW290"
"2023-05-16 20:00",1.398,"Working","OW290"
"2023-05-16 21:00",1.399,"Working","OW290"
"2023-05-16 22:00",1.398,"Working","OW290"
"2023-05-16 23:00",1.397,"Working","OW290"
"2023-05-17 00:00",1.396,"Working","OW290"
"2023-05-17 01:00",1.394,"Working","OW290"
"2023-05-17 02:00",1.393,"Working","OW290"
"2023-05-17 03:00",1.393,"Working","OW290"
"2023-05-17 04:00",1.393,"Working","OW290"
"2023-05-17 05:00",1.395,"Working","OW290"
"2023-05-17 06:00",1.397,"Working","OW290"
"2023-05-17 07:00",1.4,"Working","OW290"
"2023-05-17 08:00",1.401,"Working","OW290"
"2023-05-17 09:00",1.402,"Working","OW290"
"2023-05-17 10:00",1.402,"Working","OW290"
"2023-05-17 11:00",1.401,"Working","OW290"
"2023-05-17 12:00",1.4,"Working","OW290"
"2023-05-17 13:00",1.397,"Working","OW290"
"2023-05-17 14:00",1.396,"Working","OW290"
"2023-05-17 15:00",1.394,"Working","OW290"
"2023-05-17 16:00",1.394,"Working","OW290"
"2023-05-17 17:00",1.394,"Working","OW290"
"2023-05-17 18:00",1.396,"Working","OW290"
"2023-05-17 19:00",1.398,"Working","OW290"
"2023-05-17 20:00",1.399,"Working","OW290"
"2023-05-17 21:00",1.4,"Working","OW290"
"2023-05-17 22:00",1.401,"Working","OW290"
"2023-05-17 23:00",1.401,"Working","OW290"
"2023-05-18 00:00",1.4,"Working","OW290"
"2023-05-18 01:00",1.399,"Working","OW290"
"2023-05-18 02:00",1.397,"Working","OW290"
"2023-05-18 03:00",1.396,"Working","OW290"
"2023-05-18 04:00",1.396,"Working","OW290"
"2023-05-18 05:00",1.397,"Working","OW290"
"2023-05-18 06:00",1.399,"Working","OW290"
"2023-05-18 07:00",1.401,"Working","OW290"
"2023-05-18 08:00",1.403,"Working","OW290"
"2023-05-18 09:00",1.405,"Working","OW290"
"2023-05-18 10:00",1.406,"Working","OW290"
"2023-05-18 11:00",1.405,"Working","OW290"
"2023-05-18 12:00",1.404,"Working","OW290"
"2023-05-18 13:00",1.402,"Working","OW290"
"2023-05-18 14:00",1.401,"Working","OW290"
"2023-05-18 15:00",1.4,"Working","OW290"
"2023-05-18 16:00",1.4,"Working","OW290"
"2023-05-18 17:00",1.4,"Working","OW290"
"2023-05-18 18:00",1.402,"Working","OW290"
"2023-05-18 19:00",1.406,"Working","OW290"
"2023-05-18 20:00",1.409,"Working","OW290"
"2023-05-18 21:00",1.412,"Working","OW290"
"2023-05-18 22:00",1.414,"Working","OW290"
"2023-05-18 23:00",1.416,"Working","OW290"
"2023-05-19 00:00",1.417,"Working","OW290"
"2023-05-19 01:00",1.417,"Working","OW290"
"2023-05-19 02:00",1.416,"Working","OW290"
"2023-05-19 03:00",1.416,"Working","OW290"
"2023-05-19 04:00",1.416,"Working","OW290"
"2023-05-19 05:00",1.417,"Working","OW290"
"2023-05-19 06:00",1.418,"Working","OW290"
"2023-05-19 07:00",1.42,"Working","OW290"
"2023-05-19 08:00",1.422,"Working","OW290"
"2023-05-19 09:00",1.423,"Working","OW290"
"2023-05-19 10:00",1.424,"Working","OW290"
"2023-05-19 11:00",1.425,"Working","OW290"
"2023-05-19 12:00",1.424,"Working","OW290"
"2023-05-19 13:00",1.422,"Working","OW290"
"2023-05-19 14:00",1.421,"Working","OW290"
"2023-05-19 15:00",1.419,"Working","OW290"
"2023-05-19 16:00",1.418,"Working","OW290"
"2023-05-19 17:00",1.418,"Working","OW290"
"2023-05-19 18:00",1.418,"Working","OW290"
"2023-05-19 19:00",1.42,"Working","OW290"
"2023-05-19 20:00",1.423,"Working","OW290"
"2023-05-19 21:00",1.425,"Working","OW290"
"2023-05-19 22:00",1.427,"Working","OW290"
"2023-05-19 23:00",1.428,"Working","OW290"
"2023-05-20 00:00",1.429,"Working","OW290"
"2023-05-20 01:00",1.429,"Working","OW290"
"2023-05-20 02:00",1.428,"Working","OW290"
"2023-05-20 03:00",1.427,"Working","OW290"
"2023-05-20 04:00",1.426,"Working","OW290"
"2023-05-20 05:00",1.426,"Working","OW290"
"2023-05-20 06:00",1.426,"Working","OW290"
"2023-05-20 07:00",1.427,"Working","OW290"
"2023-05-20 08:00",1.428,"Working","OW290"
"2023-05-20 09:00",1.429,"Working","OW290"
"2023-05-20 10:00",1.43,"Working","OW290"
"2023-05-20 11:00",1.43,"Working","OW290"
"2023-05-20 12:00",1.429,"Working","OW290"
"2023-05-20 13:00",1.428,"Working","OW290"
"2023-05-20 14:00",1.427,"Working","OW290"
"2023-05-20 15:00",1.425,"Working","OW290"
"2023-05-20 16:00",1.423,"Working","OW290"
"2023-05-20 17:00",1.422,"Working","OW290"
"2023-05-20 18:00",1.423,"Working","OW290"
"2023-05-20 19:00",1.424,"Working","OW290"
"2023-05-20 20:00",1.426,"Working","OW290"
"2023-05-20 21:00",1.429,"Working","OW290"
"2023-05-20 22:00",1.431,"Working","OW290"
"2023-05-20 23:00",1.433,"Working","OW290"
"2023-05-21 00:00",1.435,"Working","OW290"
"2023-05-21 01:00",1.435,"Working","OW290"
"2023-05-21 02:00",1.436,"Working","OW290"
"2023-05-21 03:00",1.435,"Working","OW290"
"2023-05-21 04:00",1.435,"Working","OW290"
"2023-05-21 05:00",1.435,"Working","OW290"
"2023-05-21 06:00",1.435,"Working","OW290"
"2023-05-21 07:00",1.435,"Working","OW290"
"2023-05-21 08:00",1.436,"Working","OW290"
"2023-05-21 09:00",1.436,"Working","OW290"
"2023-05-21 10:00",1.437,"Working","OW290"
"2023-05-21 11:00",1.437,"Working","OW290"
"2023-05-21 12:00",1.437,"Working","OW290"
"2023-05-21 13:00",1.436,"Working","OW290"
"2023-05-21 14:00",1.435,"Working","OW290"
"2023-05-21 15:00",1.433,"Working","OW290"
"2023-05-21 16:00",1.432,"Working","OW290"
"2023-05-21 17:00",1.43,"Working","OW290"
"2023-05-21 18:00",1.43,"Working","OW290"
"2023-05-21 19:00",1.431,"Working","OW290"
"2023-05-21 20:00",1.433,"Working","OW290"
"2023-05-21 21:00",1.435,"Working","OW290"
"2023-05-21 22:00",1.438,"Working","OW290"
"2023-05-21 23:00",1.441,"Working","OW290"
"2023-05-22 00:00",1.443,"Working","OW290"
"2023-05-22 01:00",1.445,"Working","OW290"
"2023-05-22 02:00",1.446,"Working","OW290"
"2023-05-22 03:00",1.447,"Working","OW290"
"2023-05-22 04:00",1.447,"Working","OW290"
"2023-05-22 05:00",1.446,"Working","OW290"
"2023-05-22 06:00",1.443,"Working","OW290"
"2023-05-22 07:00",1.441,"Working","OW290"
"2023-05-22 08:00",1.441,"Working","OW290"
"2023-05-22 09:00",1.442,"Working","OW290"
"2023-05-22 10:00",1.441,"Working","OW290"
"2023-05-22 11:00",1.441,"Working","OW290"
"2023-05-22 12:00",1.441,"Working","OW290"
"2023-05-22 13:00",1.44,"Working","OW290"
"2023-05-22 14:00",1.439,"Working","OW290"
"2023-05-22 15:00",1.438,"Working","OW290"
"2023-05-22 16:00",1.436,"Working","OW290"
"2023-05-22 17:00",1.434,"Working","OW290"
"2023-05-22 18:00",1.434,"Working","OW290"
"2023-05-22 19:00",1.434,"Working","OW290"
"2023-05-22 20:00",1.435,"Working","OW290"
"2023-05-22 21:00",1.438,"Working","OW290"
"2023-05-22 22:00",1.441,"Working","OW290"
"2023-05-22 23:00",1.444,"Working","OW290"
"2023-05-23 00:00",1.447,"Working","OW290"
"2023-05-23 01:00",1.449,"Working","OW290"
"2023-05-23 02:00",1.451,"Working","OW290"
"2023-05-23 03:00",1.452,"Working","OW290"
"2023-05-23 04:00",1.452,"Working","OW290"
"2023-05-23 05:00",1.452,"Working","OW290"
"2023-05-23 06:00",1.452,"Working","OW290"
"2023-05-23 07:00",1.451,"Working","OW290"
"2023-05-23 08:00",1.451,"Working","OW290"
"2023-05-23 09:00",1.451,"Working","OW290"
"2023-05-23 10:00",1.45,"Working","OW290"
"2023-05-23 11:00",1.45,"Working","OW290"
"2023-05-23 12:00",1.45,"Working","OW290"
"2023-05-23 13:00",1.449,"Working","OW290"
"2023-05-23 14:00",1.448,"Working","OW290"
"2023-05-23 15:00",1.447,"Working","OW290"
"2023-05-23 16:00",1.446,"Working","OW290"
"2023-05-23 17:00",1.444,"Working","OW290"
"2023-05-23 18:00",1.443,"Working","OW290"
"2023-05-23 19:00",1.442,"Working","OW290"
"2023-05-23 20:00",1.443,"Working","OW290"
"2023-05-23 21:00",1.444,"Working","OW290"
"2023-05-23 22:00",1.446,"Working","OW290"
"2023-05-23 23:00",1.448,"Working","OW290"
"2023-05-24 00:00",1.452,"Working","OW290"
"2023-05-24 01:00",1.454,"Working","OW290"
"2023-05-24 02:00",1.456,"Working","OW290"
"2023-05-24 03:00",1.457,"Working","OW290"
"2023-05-24 04:00",1.459,"Working","OW290"
"2023-05-24 05:00",1.46,"Working","OW290"
"2023-05-24 06:00",1.459,"Working","OW290"
"2023-05-24 07:00",1.458,"Working","OW290"
"2023-05-24 08:00",1.457,"Working","OW290"
"2023-05-24 09:00",1.457,"Working","OW290"
"2023-05-24 10:00",1.456,"Working","OW290"
"2023-05-24 11:00",1.456,"Working","OW290"
"2023-05-24 12:00",1.456,"Working","OW290"
"2023-05-24 13:00",1.456,"Working","OW290"
"2023-05-24 14:00",1.456,"Working","OW290"
"2023-05-24 15:00",1.455,"Working","OW290"
"2023-05-24 16:00",1.454,"Working","OW290"
"2023-05-24 17:00",1.454,"Working","OW290"
"2023-05-24 18:00",1.452,"Working","OW290"
"2023-05-24 19:00",1.451,"Working","OW290"
"2023-05-24 20:00",1.451,"Working","OW290"
"2023-05-24 21:00",1.451,"Working","OW290"
"2023-05-24 22:00",1.452,"Working","OW290"
"2023-05-24 23:00",1.454,"Working","OW290"
"2023-05-25 00:00",1.457,"Working","OW290"
"2023-05-25 01:00",1.458,"Working","OW290"
"2023-05-25 02:00",1.46,"Working","OW290"
"2023-05-25 03:00",1.462,"Working","OW290"
"2023-05-25 04:00",1.464,"Working","OW290"
"2023-05-25 05:00",1.465,"Working","OW290"
"2023-05-25 06:00",1.466,"Working","OW290"
"2023-05-25 07:00",1.465,"Working","OW290"
"2023-05-25 08:00",1.464,"Working","OW290"
"2023-05-25 09:00",1.463,"Working","OW290"
"2023-05-25 10:00",1.463,"Working","OW290"
"2023-05-25 11:00",1.462,"Working","OW290"
"2023-05-25 12:00",1.462,"Working","OW290"
"2023-05-25 13:00",1.462,"Working","OW290"
"2023-05-25 14:00",1.462,"Working","OW290"
"2023-05-25 15:00",1.461,"Working","OW290"
"2023-05-25 16:00",1.461,"Working","OW290"
"2023-05-25 17:00",1.46,"Working","OW290"
"2023-05-25 18:00",1.459,"Working","OW290"
"2023-05-25 19:00",1.458,"Working","OW290"
"2023-05-25 20:00",1.457,"Working","OW290"
"2023-05-25 21:00",1.456,"Working","OW290"
"2023-05-25 22:00",1.457,"Working","OW290"
"2023-05-25 23:00",1.457,"Working","OW290"
"2023-05-26 00:00",1.459,"Working","OW290"
"2023-05-26 01:00",1.461,"Working","OW290"
"2023-05-26 02:00",1.463,"Working","OW290"
"2023-05-26 03:00",1.466,"Working","OW290"
"2023-05-26 04:00",1.468,"Working","OW290"
"2023-05-26 05:00",1.469,"Working","OW290"
"2023-05-26 06:00",1.47,"Working","OW290"
"2023-05-26 07:00",1.471,"Working","OW290"
"2023-05-26 08:00",1.47,"Working","OW290"
"2023-05-26 09:00",1.47,"Working","OW290"
"2023-05-26 10:00",1.469,"Working","OW290"
"2023-05-26 11:00",1.469,"Working","OW290"
"2023-05-26 12:00",1.469,"Working","OW290"
"2023-05-26 13:00",1.469,"Working","OW290"
"2023-05-26 14:00",1.469,"Working","OW290"
"2023-05-26 15:00",1.47,"Working","OW290"
"2023-05-26 16:00",1.47,"Working","OW290"
"2023-05-26 17:00",1.47,"Working","OW290"
"2023-05-26 18:00",1.47,"Working","OW290"
"2023-05-26 19:00",1.469,"Working","OW290"
"2023-05-26 20:00",1.468,"Working","OW290"
"2023-05-26 21:00",1.467,"Working","OW290"
"2023-05-26 22:00",1.466,"Working","OW290"
"2023-05-26 23:00",1.467,"Working","OW290"
"2023-05-27 00:00",1.467,"Working","OW290"
"2023-05-27 01:00",1.469,"Working","OW290"
"2023-05-27 02:00",1.471,"Working","OW290"
"2023-05-27 03:00",1.474,"Working","OW290"
"2023-05-27 04:00",1.476,"Working","OW290"
"2023-05-27 05:00",1.479,"Working","OW290"
"2023-05-27 06:00",1.481,"Working","OW290"
"2023-05-27 07:00",1.482,"Working","OW290"
"2023-05-27 08:00",1.481,"Working","OW290"
"2023-05-27 09:00",1.481,"Working","OW290"
"2023-05-27 10:00",1.48,"Working","OW290"
"2023-05-27 11:00",1.479,"Working","OW290"
"2023-05-27 12:00",1.479,"Working","OW290"
"2023-05-27 13:00",1.479,"Working","OW290"
"2023-05-27 14:00",1.48,"Working","OW290"
"2023-05-27 15:00",1.481,"Working","OW290"
"2023-05-27 16:00",1.482,"Working","OW290"
"2023-05-27 17:00",1.482,"Working","OW290"
"2023-05-27 18:00",1.482,"Working","OW290"
"2023-05-27 19:00",1.482,"Working","OW290"
"2023-05-27 20:00",1.482,"Working","OW290"
"2023-05-27 21:00",1.481,"Working","OW290"
"2023-05-27 22:00",1.481,"Working","OW290"
"2023-05-27 23:00",1.481,"Working","OW290"
"2023-05-28 00:00",1.481,"Working","OW290"
"2023-05-28 01:00",1.482,"Working","OW290"
"2023-05-28 02:00",1.484,"Working","OW290"
"2023-05-28 03:00",1.487,"Working","OW290"
"2023-05-28 04:00",1.49,"Working","OW290"
"2023-05-28 05:00",1.492,"Working","OW290"
"2023-05-28 06:00",1.494,"Working","OW290"
"2023-05-28 07:00",1.494,"Working","OW290"
"2023-05-28 08:00",1.495,"Working","OW290"
"2023-05-28 09:00",1.494,"Working","OW290"
"2023-05-28 10:00",1.493,"Working","OW290"
"2023-05-28 11:00",1.492,"Working","OW290"
"2023-05-28 12:00",1.491,"Working","OW290"
"2023-05-28 13:00",1.491,"Working","OW290"
"2023-05-28 14:00",1.491,"Working","OW290"
"2023-05-28 15:00",1.491,"Working","OW290"
"2023-05-28 16:00",1.492,"Working","OW290"
"2023-05-28 17:00",1.493,"Working","OW290"
"2023-05-28 18:00",1.493,"Working","OW290"
"2023-05-28 19:00",1.493,"Working","OW290"
"2023-05-28 20:00",1.493,"Working","OW290"
"2023-05-28 21:00",1.492,"Working","OW290"
"2023-05-28 22:00",1.491,"Working","OW290"
"2023-05-28 23:00",1.49,"Working","OW290"
"2023-05-29 00:00",1.489,"Working","OW290"
"2023-05-29 01:00",1.489,"Working","OW290"
"2023-05-29 02:00",1.49,"Working","OW290"
"2023-05-29 03:00",1.492,"Working","OW290"
"2023-05-29 04:00",1.494,"Working","OW290"
"2023-05-29 05:00",1.496,"Working","OW290"
"2023-05-29 06:00",1.498,"Working","OW290"
"2023-05-29 07:00",1.499,"Working","OW290"
"2023-05-29 08:00",1.499,"Working","OW290"
"2023-05-29 09:00",1.498,"Working","OW290"
"2023-05-29 10:00",1.497,"Working","OW290"
"2023-05-29 11:00",1.495,"Working","OW290"
"2023-05-29 12:00",1.494,"Working","OW290"
"2023-05-29 13:00",1.493,"Working","OW290"
"2023-05-29 14:00",1.493,"Working","OW290"
"2023-05-29 15:00",1.493,"Working","OW290"
"2023-05-29 16:00",1.494,"Working","OW290"